Christman Field Latest Observations
Date Time
MST
Temp
°F
RH
%
DewPt
°F
Wind
mph
Dir
°
Gust
mph
Dir
°
Press
in Hg
Solar
W/m^2
Prec
in
2020-09-18 15:20 76.3 34.5 46.2 6.0 144 8.8 140 0.000 363.1 0.00
2020-09-18 15:15 76.1 33.1 45.0 7.0 141 10.0 143 0.000 391.3 0.00
2020-09-18 15:10 76.1 33.6 45.5 6.9 140 10.5 137 0.000 342.5 0.00
2020-09-18 15:05 76.5 32.1 44.6 7.2 122 9.6 98 0.000 443.5 0.00
2020-09-18 15:00 76.7 32.8 45.3 5.6 84 10.4 98 0.000 505.7 0.00
2020-09-18 14:55 76.2 34.6 46.3 5.8 78 10.1 135 0.000 541.6 0.00
2020-09-18 14:50 75.4 32.4 43.9 7.4 142 11.7 140 0.000 411.1 0.00
2020-09-18 14:45 76.1 32.5 44.5 6.1 112 9.4 159 0.000 309.1 0.00
2020-09-18 14:40 75.8 33.4 45.0 5.1 107 8.9 104 0.000 526.2 0.00
2020-09-18 14:35 75.4 35.8 46.5 4.8 131 7.2 120 0.000 393.2 0.00
2020-09-18 14:30 75.1 36.1 46.5 5.2 107 7.1 121 0.000 296.1 0.00
2020-09-18 14:25 74.6 37.1 46.8 5.2 107 8.5 102 0.000 314.8 0.00
2020-09-18 14:20 74.8 34.0 44.6 5.4 130 9.2 121 0.000 408.9 0.00
2020-09-18 14:15 74.9 34.0 44.7 5.8 147 12.6 123 0.000 400.4 0.00
2020-09-18 14:10 75.1 33.0 44.0 7.5 121 13.5 121 0.000 553.1 0.00
2020-09-18 14:05 75.2 33.3 44.4 7.2 167 11.3 162 0.000 582.5 0.00
2020-09-18 14:00 74.7 34.2 44.6 9.8 168 15.0 142 0.000 606.9 0.00
2020-09-18 13:55 74.7 34.2 44.7 8.7 136 13.1 137 0.000 618.4 0.00
2020-09-18 13:50 74.1 36.6 45.9 8.2 159 12.1 103 0.000 608.9 0.00
2020-09-18 13:45 74.3 35.8 45.4 7.9 86 13.6 95 0.000 617.9 0.00
2020-09-18 13:40 74.2 35.6 45.3 6.5 119 11.0 106 0.000 634.8 0.00
2020-09-18 13:35 74.1 36.1 45.5 5.6 115 8.5 128 0.000 597.4 0.00
2020-09-18 13:30 73.4 37.5 45.9 6.0 121 9.8 128 0.000 619.1 0.00
2020-09-18 13:25 72.8 37.8 45.7 7.3 137 10.9 121 0.000 657.0 0.00
2020-09-18 13:20 72.4 38.1 45.4 7.6 110 11.0 137 0.000 413.4 0.00
2020-09-18 13:15 72.7 38.2 45.8 6.4 134 10.7 154 0.000 563.4 0.00
2020-09-18 13:10 72.9 39.2 46.7 7.0 169 9.6 154 0.000 661.6 0.00
2020-09-18 13:05 72.6 39.0 46.2 5.7 91 9.3 84 0.000 665.7 0.00
2020-09-18 13:00 71.7 40.8 46.7 5.1 95 8.0 136 0.000 673.3 0.00
2020-09-18 12:55 71.0 44.4 48.3 5.5 128 8.0 126 0.000 563.3 0.00
CIRA

Cooperative Institute for Research in the Atmosphere

CIRA Software Engineering Group (CSEG)


About the team


The CIRA Software Engineering Group (CSEG) began as an informal, enthusiastic grassroots group in April of 2014. Since then, it has grown into an active and cross-cutting group with representation from teams at CIRA-Fort Collins, CIRA-Boulder, the National Parks Service (NPS), the CSU Department of Atmospheric Science, the CSU Department of Soil and Crop Sciences, and the CSU Center for the Environmental Management of Military Lands (CEMML). CSEG supports the Vision for CIRA by exploring and testing emerging software technologies from outside the atmospheric sciences and incorporating them into our work to support the efficiency and excellence of CIRA’s research themes.

CSEG meets monthly to discuss how new tools and techniques can inform and improve CIRA’s data management, computing, and scientific efforts. CSEG further benefits CIRA’s projects by providing opportunities to discuss common software issues, to collect feedback on ideas, and to brainstorm alternative solutions, as well as assisting in planning future computing infrastructure and collaboratively developing software for general use across CIRA teams. CSEG also offers trainings for software tools that benefit the CIRA community (e.g., CSEG has offered Git training since 2016 and manages a local-network Git repository server).

CSEG is open to all and you need not characterize yourself as a software engineer to participate — all tech junkies are welcome! If you are interested in joining this innovative and vibrant community, please contact cseg@colostate.edu for more information.